Waarnemingen

Advertentie
Mijn weer
Torino/Caselle, Italië (16059): temperatuur & dauwpunt: 16.01.2018 11:00:00 - 22.01.2018 11:00:00 (CET)Torino/Caselle, Italië (16059): windsnelheid: 16.01.2018 11:00:00 - 22.01.2018 11:00:00 (CET)Torino/Caselle, Italië (16059): windrichting: 16.01.2018 11:00:00 - 22.01.2018 11:00:00 (CET)Torino/Caselle, Italië (16059): luchtdruk: 16.01.2018 11:00:00 - 22.01.2018 11:00:00 (CET)Torino/Caselle, Italië (16059): zicht: 16.01.2018 11:00:00 - 22.01.2018 11:00:00 (CET)Torino/Caselle, Italië (16059): neerslag: 16.01.2018 11:00:00 - 22.01.2018 11:00:00 (CET)
Datum & Tijd tt [°C] td [°C] ff [km/u] ff [kn] dd ppp [hPa] vv [km] rr [mm]
22.01.2018 11:00:00 7,0 -4,0 4 2 - - 10 -
22.01.2018 10:00:00 4,9 -0,5 9 5 W 1016,7 15 0,0
22.01.2018 09:00:00 2,0 -2,0 11 6 WNW - 10 -
22.01.2018 08:00:00 3,0 -4,0 8 4 N - 10 -
22.01.2018 07:00:00 2,3 -2,4 4 2 NW 1015,6 45 -
22.01.2018 06:00:00 4,0 -1,0 11 6 NW - 10 -
22.01.2018 05:00:00 2,0 -2,0 8 4 NNW - 10 -
22.01.2018 04:00:00 4,1 -1,4 8 4 NW 1015,2 45 0,0
22.01.2018 03:00:00 4,0 -1,0 9 5 WNW - 10 -
22.01.2018 02:00:00 2,0 -1,0 8 4 NNO - 10 -
22.01.2018 01:00:00 2,7 -1,4 8 4 N 1014,4 45 -
22.01.2018 00:00:00 4,0 0,0 9 5 WNW - 10 -
21.01.2018 23:00:00 4,0 0,0 4 2 - - 10 -
21.01.2018 22:00:00 4,6 0,7 4 2 NW 1013,0 45 0,0
21.01.2018 21:00:00 6,0 1,0 5 3 WNW - 10 -
21.01.2018 20:00:00 8,0 0,0 2 1 - - 10 -
21.01.2018 19:00:00 8,8 0,5 9 5 ZW 1011,0 20 -
21.01.2018 18:00:00 9,0 1,0 9 5 ZZW - 10 -
21.01.2018 17:00:00 12,0 2,0 13 7 ZZW - 10 -
21.01.2018 16:00:00 12,0 1,3 15 8 ZZW 1008,1 20 0,0
21.01.2018 15:00:00 15,0 0,0 24 13 OZO - 10 -
21.01.2018 14:00:00 13,0 2,0 16 9 O - 10 -
21.01.2018 13:00:00 11,8 1,7 13 7 ZO 1007,1 45 -
21.01.2018 12:00:00 9,0 3,0 8 4 ONO - 10 -
21.01.2018 11:00:00 4,0 2,0 11 6 - - 10 -
21.01.2018 10:00:00 2,1 1,1 5 3 N 1006,9 3,0 0,0
21.01.2018 09:00:00 0,0 0,0 5 3 - - 2,5 -
21.01.2018 08:00:00 0,0 0,0 8 4 WNW - 3,5 -
21.01.2018 07:00:00 0,4 -0,1 2 1 N 1005,9 15 -
21.01.2018 06:00:00 0,0 -1,0 9 5 NNW - 8 -
21.01.2018 05:00:00 0,0 1,0 8 4 WNW - 7 -
21.01.2018 04:00:00 0,9 0,3 2 1 N 1003,9 6 0,0
21.01.2018 03:00:00 1,0 1,0 9 5 ONO - 10 -
21.01.2018 02:00:00 3,0 2,0 2 1 - - 10 -
21.01.2018 01:00:00 2,8 1,7 5 3 N 1003,7 15 -
21.01.2018 00:00:00 3,0 1,0 9 5 W - 10 -
20.01.2018 23:00:00 3,0 1,0 8 4 N - 10 -
20.01.2018 22:00:00 3,9 0,1 8 4 N 1006,2 15 0,0
20.01.2018 21:00:00 5,0 0,0 8 4 ONO - 10 -
20.01.2018 20:00:00 5,0 -1,0 16 9 NNW - 10 -
20.01.2018 19:00:00 6,2 -1,8 9 5 NNO 1008,4 23 -
20.01.2018 18:00:00 7,0 -3,0 4 2 - - 10 -
20.01.2018 17:00:00 8,0 -6,0 5 3 N - 10 -
20.01.2018 16:00:00 8,9 -6,7 4 2 NO 1008,7 30 0,0
20.01.2018 15:00:00 10,0 -9,0 4 2 - - 10 -
20.01.2018 14:00:00 9,0 -9,0 4 2 - - 10 -
20.01.2018 13:00:00 9,5 -9,4 4 2 ZZO 1011,9 15 -
20.01.2018 12:00:00 8,0 -5,0 5 3 ZZW - 10 -
20.01.2018 11:00:00 6,0 -4,0 4 2 - - 10 -
20.01.2018 10:00:00 5,7 -4,5 2 1 N 1013,6 25 0,0
20.01.2018 09:00:00 3,0 -4,0 9 5 NNW - 10 -
20.01.2018 08:00:00 2,0 -4,0 4 2 - - 10 -
20.01.2018 07:00:00 1,0 -4,4 5 3 ONO 1013,3 35 -
20.01.2018 06:00:00 2,0 -4,0 4 2 - - 10 -
20.01.2018 05:00:00 2,0 -4,0 8 4 NO - 10 -
20.01.2018 04:00:00 4,1 -3,4 8 4 NNW 1013,0 25 0,0
20.01.2018 03:00:00 4,0 -6,0 4 2 - - 10 -
20.01.2018 02:00:00 4,0 -6,0 4 2 - - 10 -
20.01.2018 01:00:00 5,9 -6,4 8 4 ZZO 1012,2 35 -
20.01.2018 00:00:00 4,0 -6,0 13 7 N - 10 -
19.01.2018 23:00:00 8,0 -8,0 18 10 WNW - 10 -
19.01.2018 22:00:00 6,4 -6,4 8 4 W 1010,6 35 0,0
19.01.2018 21:00:00 7,0 -6,0 5 3 NW - 10 -
19.01.2018 20:00:00 8,0 -2,0 9 5 NO - 10 -
19.01.2018 19:00:00 10,9 -11,0 16 9 WZW 1009,5 75 -
19.01.2018 18:00:00 13,0 -13,0 18 10 W - 10 -
19.01.2018 17:00:00 13,0 -13,0 28 15 WNW - 10 -
19.01.2018 16:00:00 14,1 -12,4 31 17 WNW 1008,5 75 0,0
19.01.2018 15:00:00 15,0 -13,0 35 19 WNW - 10 -
19.01.2018 14:00:00 15,0 -13,0 37 20 NW - 10 -
19.01.2018 13:00:00 12,6 -3,2 8 4 Z 1008,0 30 -
19.01.2018 12:00:00 8,0 -2,0 5 3 ZZW - 10 -
19.01.2018 11:00:00 6,0 -2,0 8 4 Z - 10 -
19.01.2018 10:00:00 4,5 -3,0 5 3 NNW 1008,6 10 0,0
19.01.2018 09:00:00 0,0 -4,0 9 5 W - 10 -
19.01.2018 08:00:00 0,0 -4,0 5 3 NW - 10 -
19.01.2018 07:00:00 -0,5 -4,4 4 2 - 1007,8 10 -
19.01.2018 06:00:00 -1,0 -4,0 4 2 - - 10 -
19.01.2018 05:00:00 0,0 -4,0 8 4 WNW - 10 -
19.01.2018 04:00:00 -0,9 -4,4 4 2 - 1008,5 10 0,0
19.01.2018 03:00:00 0,0 -4,0 4 2 - - 10 -
19.01.2018 02:00:00 1,0 -4,0 8 4 W - 10 -
19.01.2018 01:00:00 0,9 -4,0 5 3 W 1010,1 10 -
19.01.2018 00:00:00 1,0 -4,0 8 4 NW - 10 -
18.01.2018 23:00:00 1,0 -4,0 8 4 - - 10 -
18.01.2018 22:00:00 2,0 -3,7 5 3 NNW 1011,0 10 0,0
18.01.2018 21:00:00 3,0 -3,0 9 5 WNW - 10 -
18.01.2018 20:00:00 4,0 -3,0 5 3 N - 10 -
18.01.2018 19:00:00 3,9 -3,1 4 2 - 1011,4 10 -
18.01.2018 18:00:00 7,0 -4,0 8 4 Z - 10 -
18.01.2018 17:00:00 8,0 -4,0 2 1 - - 10 -
18.01.2018 16:00:00 8,7 -4,5 8 4 O 1012,5 10 0,0
18.01.2018 15:00:00 9,0 -5,0 8 4 NO - 10 -
18.01.2018 14:00:00 8,0 -5,0 9 5 NNO - 10 -
18.01.2018 13:00:00 7,7 -7,0 11 6 ONO 1013,9 10 -
18.01.2018 12:00:00 7,0 -8,0 9 5 ONO - 10 -
18.01.2018 11:00:00 6,0 -7,0 8 4 ONO - 10 -
18.01.2018 10:00:00 5,2 -7,3 2 1 N 1015,5 30 0,0
18.01.2018 09:00:00 0,0 -7,0 2 1 - - 10 -
18.01.2018 08:00:00 0,0 -8,0 13 7 N - 10 -
18.01.2018 07:00:00 0,7 -7,9 8 4 NNW 1015,0 10 -
18.01.2018 06:00:00 0,0 -8,0 4 2 NNW - 10 -
18.01.2018 05:00:00 1,0 -8,0 9 5 W - 10 -
18.01.2018 04:00:00 2,3 -9,0 9 5 N 1015,2 10 0,0
18.01.2018 03:00:00 4,0 -10,0 8 4 WNW - 10 -
18.01.2018 02:00:00 3,0 -9,0 4 2 - - 10 -
18.01.2018 01:00:00 2,6 -7,9 11 6 O 1015,9 10 -
18.01.2018 00:00:00 4,0 -11,0 5 3 - - 10 -
17.01.2018 23:00:00 7,0 -13,0 18 10 W - 10 -
17.01.2018 22:00:00 7,8 -13,1 22 12 W 1014,9 10 0,0
17.01.2018 21:00:00 7,0 -10,0 18 10 WZW - 10 -
17.01.2018 20:00:00 7,0 -9,0 22 12 WZW - 10 -
17.01.2018 19:00:00 6,9 -9,4 28 15 ZW 1013,0 10 -
17.01.2018 18:00:00 9,0 -15,0 26 14 W - 10 -
17.01.2018 17:00:00 9,0 -16,0 22 12 WNW - 10 -
17.01.2018 16:00:00 10,4 -11,6 29 16 W 1009,7 10 0,0
17.01.2018 15:00:00 9,0 -8,0 29 16 ZW - 10 -
17.01.2018 14:00:00 10,0 -9,0 18 10 WZW - 10 -
17.01.2018 13:00:00 9,2 -6,5 37 20 ZW 1006,4 10 -
17.01.2018 12:00:00 9,0 -6,0 29 16 WZW - 10 -
17.01.2018 11:00:00 7,0 -1,0 31 17 ZW - 10 -
17.01.2018 10:00:00 7,9 -1,4 13 7 NNW 1004,6 10 0,0
17.01.2018 09:00:00 9,0 -4,0 22 12 WZW - 10 -
17.01.2018 08:00:00 5,0 0,0 21 11 ZW - 10 -
17.01.2018 07:00:00 2,0 0,3 5 3 - 1001,0 4,0 -
17.01.2018 06:00:00 1,0 0,0 11 6 O - 2,5 -
17.01.2018 05:00:00 2,0 0,0 13 7 ZZW - 4,0 -
17.01.2018 04:00:00 2,3 0,5 5 3 NNW 1000,2 4,0 0,0
17.01.2018 03:00:00 - - - - - - - -
17.01.2018 02:00:00 1,0 0,0 8 4 NW - 7 -
17.01.2018 01:00:00 0,4 -0,9 4 2 - 1000,3 7 -
17.01.2018 00:00:00 1,0 -2,0 4 2 - - 7 -
16.01.2018 23:00:00 1,0 -1,0 11 6 N - 7 -
16.01.2018 22:00:00 0,7 -1,2 8 4 N 1002,8 7 0,0
16.01.2018 21:00:00 1,0 -1,0 8 4 N - 7 -
16.01.2018 20:00:00 2,0 -1,0 8 4 NW - 6 -
16.01.2018 19:00:00 2,7 -0,6 2 1 - 1004,2 7 -
16.01.2018 18:00:00 5,0 0,0 2 1 - - 4,0 -
16.01.2018 17:00:00 5,0 0,0 5 3 OZO - 5 -
16.01.2018 16:00:00 6,1 -0,1 5 3 ZO 1006,1 5 0,0
16.01.2018 15:00:00 6,0 0,0 8 4 Z - 5 -
16.01.2018 14:00:00 6,0 0,0 4 2 - - 5 -
16.01.2018 13:00:00 5,8 0,1 5 3 Z 1009,0 5 -
16.01.2018 12:00:00 4,0 2,0 5 3 ZZW - 2,5 -
16.01.2018 11:00:00 4,0 2,0 4 2 - - 2,5 -

tt = temperatuur
td = dauwpunt
ff = windsnelheid
dd = windrichting
ppp = luchtdruk
vv = zicht
rr = neerslag

Weerstations in de omgeving